カタログに戻る

STARLINK-37621

運用中通信VLEO
NORAD 69830·PAYLOAD·🇺🇸 United States

打ち上げ Jul 5, 2026 から Cape Canaveral Space Force Station

Loading…

次のパス (今後24時間)

TLE

最新Source: CelesTrak SupGP

元期: Sep 15, 2026, 03:28 UTC

1 69830C 26154M   26258.14493056  .00073274  00000+0  21641-2 0  2585
2 69830  53.1595 356.8111 0001057  76.3382 345.2370 15.34366606    18

AllMySatでSTARLINK-37621をリアルタイム追跡

Download on the App Store